Time,TemperatureF,DewpointF,PressureIn,WindDirection,WindDirectionDegrees,WindSpeedMPH,WindSpeedGustMPH,Humidity,HourlyPrecipIn,Conditions,Clouds,dailyrainin,SolarRadiationWatts/m^2,SoftwareType,DateUTC
2013-02-02 00:00:00,29.9,24.5,31.37,ESE,112,0.0,3.0,80,0.00,,,0.00,0.00,VWS V14.00,2013-02-02 07:00:00,
2013-02-02 00:05:00,29.7,24.3,31.35,ESE,111,0.0,0.0,80,0.00,,,0.00,0.00,VWS V14.00,2013-02-02 07:05:00,
2013-02-02 00:10:00,29.6,24.2,31.35,ESE,112,0.0,0.0,80,0.00,,,0.00,0.00,VWS V14.00,2013-02-02 07:10:00,
2013-02-02 00:15:00,29.5,24.1,31.35,ESE,112,0.0,0.0,80,0.00,,,0.00,0.00,VWS V14.00,2013-02-02 07:15:00,
2013-02-02 00:20:00,29.3,23.9,31.36,ESE,111,1.0,1.0,80,0.00,,,0.00,0.00,VWS V14.00,2013-02-02 07:20:00,
2013-02-02 00:25:00,29.1,23.7,31.36,ESE,111,0.0,1.0,80,0.00,,,0.00,0.00,VWS V14.00,2013-02-02 07:25:00,
2013-02-02 00:30:00,29.0,23.6,31.36,ESE,112,0.0,1.0,80,0.00,,,0.00,0.00,VWS V14.00,2013-02-02 07:30:00,
2013-02-02 00:35:00,28.9,23.5,31.36,ESE,112,0.0,0.0,80,0.00,,,0.00,0.00,VWS V14.00,2013-02-02 07:35:00,
2013-02-02 00:40:00,28.8,23.4,31.37,ESE,112,0.0,3.0,80,0.00,,,0.00,0.00,VWS V14.00,2013-02-02 07:40:00,
2013-02-02 00:45:00,28.5,23.1,31.37,ESE,111,1.0,3.0,80,0.00,,,0.00,0.00,VWS V14.00,2013-02-02 07:45:00,
2013-02-02 00:50:00,28.5,23.7,31.37,ESE,111,1.0,3.0,82,0.00,,,0.00,0.00,VWS V14.00,2013-02-02 07:50:00,
2013-02-02 00:55:00,28.7,23.9,31.37,SE,132,1.0,3.0,82,0.00,,,0.00,0.00,VWS V14.00,2013-02-02 07:55:00,
2013-02-02 01:00:00,28.9,24.1,31.37,SE,132,0.0,3.0,82,0.00,,,0.00,0.00,VWS V14.00,2013-02-02 08:00:00,
2013-02-02 01:05:00,29.0,23.9,31.36,SE,132,2.0,3.0,81,0.00,,,0.00,0.00,VWS V14.00,2013-02-02 08:05:00,
2013-02-02 01:10:00,29.1,24.0,31.36,SE,132,3.0,3.0,81,0.00,,,0.00,0.00,VWS V14.00,2013-02-02 08:10:00,
2013-02-02 01:15:00,29.2,24.1,31.36,SE,132,0.0,3.0,81,0.00,,,0.00,0.00,VWS V14.00,2013-02-02 08:15:00,
2013-02-02 01:20:00,29.3,24.2,31.36,SE,132,0.0,0.0,81,0.00,,,0.00,0.00,VWS V14.00,2013-02-02 08:20:00,
2013-02-02 01:25:00,29.4,24.0,31.36,SE,132,0.0,0.0,80,0.00,,,0.00,0.00,VWS V14.00,2013-02-02 08:25:00,
2013-02-02 01:30:00,29.4,24.0,31.36,SE,132,0.0,0.0,80,0.00,,,0.00,0.00,VWS V14.00,2013-02-02 08:30:00,
2013-02-02 01:35:00,29.3,23.9,31.36,SE,132,2.0,3.0,80,0.00,,,0.00,0.00,VWS V14.00,2013-02-02 08:35:00,
2013-02-02 01:40:00,29.2,24.1,31.36,SE,132,1.0,3.0,81,0.00,,,0.00,0.00,VWS V14.00,2013-02-02 08:40:00,
2013-02-02 01:45:00,29.2,24.1,31.36,SE,132,1.0,3.0,81,0.00,,,0.00,0.00,VWS V14.00,2013-02-02 08:45:00,
2013-02-02 01:50:00,29.3,24.2,31.36,SE,132,1.0,1.0,81,0.00,,,0.00,0.00,VWS V14.00,2013-02-02 08:50:00,
2013-02-02 01:55:00,29.2,24.1,31.35,SE,132,2.0,3.0,81,0.00,,,0.00,0.00,VWS V14.00,2013-02-02 08:55:00,
2013-02-02 02:00:00,29.2,24.1,31.36,SE,132,0.0,3.0,81,0.00,,,0.00,0.00,VWS V14.00,2013-02-02 09:00:00,
2013-02-02 02:05:00,29.0,23.6,31.36,SE,132,2.0,2.0,80,0.00,,,0.00,0.00,VWS V14.00,2013-02-02 09:05:00,
2013-02-02 02:10:00,29.0,23.9,31.36,SE,132,2.0,3.0,81,0.00,,,0.00,0.00,VWS V14.00,2013-02-02 09:10:00,
2013-02-02 02:15:00,29.0,23.9,31.36,SE,132,0.0,3.0,81,0.00,,,0.00,0.00,VWS V14.00,2013-02-02 09:15:00,
2013-02-02 02:20:00,29.0,23.9,31.36,SE,132,0.0,2.0,81,0.00,,,0.00,0.00,VWS V14.00,2013-02-02 09:20:00,
2013-02-02 02:25:00,28.8,23.7,31.37,SE,132,0.0,2.0,81,0.00,,,0.00,0.00,VWS V14.00,2013-02-02 09:25:00,
2013-02-02 02:30:00,28.9,24.1,31.37,SE,132,1.0,2.0,82,0.00,,,0.00,0.00,VWS V14.00,2013-02-02 09:30:00,
2013-02-02 02:35:00,28.9,23.8,31.37,SE,132,0.0,0.0,81,0.00,,,0.00,0.00,VWS V14.00,2013-02-02 09:35:00,
2013-02-02 02:40:00,28.9,23.8,31.37,SE,132,0.0,1.0,81,0.00,,,0.00,0.00,VWS V14.00,2013-02-02 09:40:00,
2013-02-02 02:45:00,28.9,23.8,31.38,SE,132,0.0,2.0,81,0.00,,,0.00,0.00,VWS V14.00,2013-02-02 09:45:00,
2013-02-02 02:50:00,28.9,23.8,31.38,South,180,0.0,3.0,81,0.00,,,0.00,0.00,VWS V14.00,2013-02-02 09:50:00,
2013-02-02 02:55:00,28.9,23.8,31.38,South,180,0.0,3.0,81,0.00,,,0.00,0.00,VWS V14.00,2013-02-02 09:55:00,
2013-02-02 03:00:00,28.8,23.7,31.38,South,180,2.0,3.0,81,0.00,,,0.00,0.00,VWS V14.00,2013-02-02 10:00:00,
2013-02-02 03:06:00,28.8,23.7,31.40,South,180,0.0,2.0,81,0.00,,,0.00,0.00,VWS V14.00,2013-02-02 10:06:00,
2013-02-02 03:11:00,28.8,23.7,31.40,South,180,0.0,3.0,81,0.00,,,0.00,0.00,VWS V14.00,2013-02-02 10:11:00,
2013-02-02 03:16:00,28.9,24.1,31.40,South,187,3.0,7.0,82,0.00,,,0.00,0.00,VWS V14.00,2013-02-02 10:16:00,
2013-02-02 03:21:00,29.1,24.3,31.40,South,178,2.0,5.0,82,0.00,,,0.00,0.00,VWS V14.00,2013-02-02 10:21:00,
2013-02-02 03:26:00,29.3,24.2,31.41,South,186,3.0,6.0,81,0.00,,,0.00,0.00,VWS V14.00,2013-02-02 10:26:00,
2013-02-02 03:31:00,29.4,24.3,31.40,SSE,157,5.0,7.0,81,0.00,,,0.00,0.00,VWS V14.00,2013-02-02 10:31:00,
2013-02-02 03:36:00,29.5,24.1,31.39,SSE,159,3.0,5.0,80,0.00,,,0.00,0.00,VWS V14.00,2013-02-02 10:36:00,
2013-02-02 03:41:00,29.5,24.1,31.39,SSE,160,1.0,5.0,80,0.00,,,0.00,0.00,VWS V14.00,2013-02-02 10:41:00,
2013-02-02 03:46:00,29.6,24.2,31.39,SSE,148,4.0,6.0,80,0.00,,,0.00,0.00,VWS V14.00,2013-02-02 10:46:00,
2013-02-02 03:51:00,29.6,24.2,31.38,SE,146,3.0,4.0,80,0.00,,,0.00,0.00,VWS V14.00,2013-02-02 10:51:00,
2013-02-02 03:56:00,29.7,24.3,31.38,SSE,154,1.0,7.0,80,0.00,,,0.00,0.00,VWS V14.00,2013-02-02 10:56:00,
2013-02-02 04:01:00,29.8,24.1,31.38,SSE,153,2.0,7.0,79,0.00,,,0.00,0.00,VWS V14.00,2013-02-02 11:01:00,
2013-02-02 04:06:00,29.7,24.0,31.41,SSE,155,0.0,3.0,79,0.00,,,0.00,0.00,VWS V14.00,2013-02-02 11:06:00,
2013-02-02 04:11:00,29.6,23.9,31.41,SSE,155,1.0,4.0,79,0.00,,,0.00,0.00,VWS V14.00,2013-02-02 11:11:00,
2013-02-02 04:16:00,29.5,24.1,31.41,South,180,1.0,6.0,80,0.00,,,0.00,0.00,VWS V14.00,2013-02-02 11:16:00,
2013-02-02 04:21:00,29.5,24.1,31.41,South,170,3.0,6.0,80,0.00,,,0.00,0.00,VWS V14.00,2013-02-02 11:21:00,
2013-02-02 04:26:00,29.7,24.0,31.41,SSE,148,3.0,6.0,79,0.00,,,0.00,0.00,VWS V14.00,2013-02-02 11:26:00,
2013-02-02 04:31:00,29.9,24.2,31.41,SSE,148,4.0,6.0,79,0.00,,,0.00,0.00,VWS V14.00,2013-02-02 11:31:00,
2013-02-02 04:36:00,30.0,24.3,31.41,SSE,155,4.0,5.0,79,0.00,,,0.00,0.00,VWS V14.00,2013-02-02 11:36:00,
2013-02-02 04:41:00,30.1,24.4,31.41,SSE,153,3.0,5.0,79,0.00,,,0.00,0.00,VWS V14.00,2013-02-02 11:41:00,
2013-02-02 04:46:00,30.0,24.3,31.41,SSE,153,4.0,5.0,79,0.00,,,0.00,0.00,VWS V14.00,2013-02-02 11:46:00,
2013-02-02 04:51:00,29.9,23.9,31.41,SSE,153,3.0,5.0,78,0.00,,,0.00,0.00,VWS V14.00,2013-02-02 11:51:00,
2013-02-02 04:56:00,29.9,23.9,31.41,SSE,152,3.0,7.0,78,0.00,,,0.00,0.00,VWS V14.00,2013-02-02 11:56:00,
2013-02-02 05:01:00,30.0,24.0,31.42,SSE,165,5.0,7.0,78,0.00,,,0.00,0.00,VWS V14.00,2013-02-02 12:01:00,
2013-02-02 05:06:00,30.1,24.1,31.43,SSE,163,1.0,5.0,78,0.00,,,0.00,0.00,VWS V14.00,2013-02-02 12:06:00,
2013-02-02 05:11:00,30.2,24.2,31.43,SSE,161,4.0,6.0,78,0.00,,,0.00,0.00,VWS V14.00,2013-02-02 12:11:00,
2013-02-02 05:16:00,30.2,23.9,31.43,SSE,160,2.0,6.0,77,0.00,,,0.00,0.00,VWS V14.00,2013-02-02 12:16:00,
2013-02-02 05:21:00,30.2,23.9,31.43,SSE,160,2.0,3.0,77,0.00,,,0.00,0.00,VWS V14.00,2013-02-02 12:21:00,
2013-02-02 05:26:00,30.1,23.8,31.43,SSE,162,3.0,5.0,77,0.00,,,0.00,0.00,VWS V14.00,2013-02-02 12:26:00,
2013-02-02 05:31:00,29.9,23.9,31.44,SSE,163,1.0,5.0,78,0.00,,,0.00,0.00,VWS V14.00,2013-02-02 12:31:00,
2013-02-02 05:36:00,29.7,23.4,31.44,SSE,165,2.0,3.0,77,0.00,,,0.00,0.00,VWS V14.00,2013-02-02 12:36:00,
2013-02-02 05:41:00,29.5,23.5,31.43,SSE,164,5.0,5.0,78,0.00,,,0.00,0.00,VWS V14.00,2013-02-02 12:41:00,
2013-02-02 05:46:00,29.3,23.6,31.43,SSE,160,5.0,7.0,79,0.00,,,0.00,0.00,VWS V14.00,2013-02-02 12:46:00,
2013-02-02 05:51:00,29.2,23.5,31.43,SSE,165,3.0,6.0,79,0.00,,,0.00,0.00,VWS V14.00,2013-02-02 12:51:00,
2013-02-02 05:56:00,29.1,23.4,31.43,SSE,164,5.0,7.0,79,0.00,,,0.00,0.00,VWS V14.00,2013-02-02 12:56:00,
2013-02-02 06:01:00,29.1,23.4,31.43,SSE,165,3.0,7.0,79,0.00,,,0.00,0.00,VWS V14.00,2013-02-02 13:01:00,
2013-02-02 06:06:00,29.0,23.3,31.44,SSE,167,4.0,7.0,79,0.00,,,0.00,0.00,VWS V14.00,2013-02-02 13:06:00,
2013-02-02 06:11:00,29.0,23.3,31.44,SSE,158,2.0,7.0,79,0.00,,,0.00,0.00,VWS V14.00,2013-02-02 13:11:00,
2013-02-02 06:16:00,29.0,23.3,31.44,SSE,157,1.0,7.0,79,0.00,,,0.00,0.00,VWS V14.00,2013-02-02 13:16:00,
2013-02-02 06:21:00,28.8,23.1,31.44,SSE,159,1.0,5.0,79,0.00,,,0.00,0.00,VWS V14.00,2013-02-02 13:21:00,
2013-02-02 06:26:00,28.7,23.0,31.44,South,169,2.0,5.0,79,0.00,,,0.00,0.00,VWS V14.00,2013-02-02 13:26:00,
2013-02-02 06:31:00,28.7,23.0,31.44,South,169,2.0,5.0,79,0.00,,,0.00,0.00,VWS V14.00,2013-02-02 13:31:00,
2013-02-02 06:36:00,28.7,23.0,31.44,South,169,3.0,5.0,79,0.00,,,0.00,0.00,VWS V14.00,2013-02-02 13:36:00,
2013-02-02 06:41:00,28.7,23.0,31.44,South,169,3.0,5.0,79,0.00,,,0.00,0.00,VWS V14.00,2013-02-02 13:41:00,
2013-02-02 06:46:00,28.7,23.0,31.44,SSE,168,5.0,6.0,79,0.00,,,0.00,0.00,VWS V14.00,2013-02-02 13:46:00,
2013-02-02 06:51:00,28.8,23.1,31.44,SSE,167,5.0,6.0,79,0.00,,,0.00,0.00,VWS V14.00,2013-02-02 13:51:00,
2013-02-02 06:56:00,28.8,23.1,31.43,SSE,167,4.0,6.0,79,0.00,,,0.00,0.00,VWS V14.00,2013-02-02 13:56:00,
2013-02-02 07:01:00,28.9,23.2,31.43,SSE,164,6.0,7.0,79,0.00,,,0.00,0.00,VWS V14.00,2013-02-02 14:01:00,
2013-02-02 07:06:00,28.9,22.9,31.45,SSE,165,3.0,6.0,78,0.00,,,0.00,0.00,VWS V14.00,2013-02-02 14:06:00,
2013-02-02 07:11:00,28.8,22.8,31.46,SSE,163,5.0,6.0,78,0.00,,,0.00,0.00,VWS V14.00,2013-02-02 14:11:00,
2013-02-02 07:16:00,28.7,23.0,31.45,South,171,3.0,6.0,79,0.00,,,0.00,0.00,VWS V14.00,2013-02-02 14:16:00,
2013-02-02 07:21:00,28.6,22.9,31.45,South,186,3.0,6.0,79,0.00,,,0.00,0.00,VWS V14.00,2013-02-02 14:21:00,
2013-02-02 07:26:00,28.5,22.8,31.45,South,186,4.0,10.0,79,0.00,,,0.00,0.00,VWS V14.00,2013-02-02 14:26:00,
2013-02-02 07:31:00,28.5,22.8,31.45,SSE,165,5.0,10.0,79,0.00,,,0.00,0.00,VWS V14.00,2013-02-02 14:31:00,
2013-02-02 07:36:00,28.6,22.9,31.45,SSE,163,1.0,5.0,79,0.00,,,0.00,0.00,VWS V14.00,2013-02-02 14:36:00,
2013-02-02 07:41:00,28.6,22.9,31.46,South,184,6.0,7.0,79,0.00,,,0.00,0.00,VWS V14.00,2013-02-02 14:41:00,
2013-02-02 07:46:00,28.7,23.0,31.47,South,187,3.0,11.0,79,0.00,,,0.00,0.00,VWS V14.00,2013-02-02 14:46:00,
2013-02-02 07:51:00,28.8,22.8,31.47,South,184,2.0,6.0,78,0.00,,,0.00,0.00,VWS V14.00,2013-02-02 14:51:00,
2013-02-02 07:56:00,29.0,23.0,31.48,SSE,168,5.0,6.0,78,0.00,,,0.00,0.00,VWS V14.00,2013-02-02 14:56:00,
2013-02-02 08:01:00,29.2,22.9,31.48,SSE,164,3.0,7.0,77,0.00,,,0.00,5.00,VWS V14.00,2013-02-02 15:01:00,
2013-02-02 08:06:00,29.3,23.0,31.48,SSE,168,3.0,5.0,77,0.00,,,0.00,5.00,VWS V14.00,2013-02-02 15:06:00,
2013-02-02 08:11:00,29.3,23.0,31.48,South,171,3.0,5.0,77,0.00,,,0.00,7.00,VWS V14.00,2013-02-02 15:11:00,
2013-02-02 08:16:00,29.2,22.9,31.48,South,172,6.0,8.0,77,0.00,,,0.00,9.00,VWS V14.00,2013-02-02 15:16:00,
2013-02-02 08:21:00,29.2,22.9,31.48,SSE,165,5.0,7.0,77,0.00,,,0.00,11.00,VWS V14.00,2013-02-02 15:21:00,
2013-02-02 08:26:00,29.0,22.7,31.48,SSE,159,0.0,7.0,77,0.00,,,0.00,11.00,VWS V14.00,2013-02-02 15:26:00,
2013-02-02 08:31:00,28.8,22.5,31.48,SSE,157,2.0,7.0,77,0.00,,,0.00,12.00,VWS V14.00,2013-02-02 15:31:00,
2013-02-02 08:36:00,28.8,22.8,31.48,SSE,156,4.0,6.0,78,0.00,,,0.00,14.00,VWS V14.00,2013-02-02 15:36:00,
2013-02-02 08:41:00,28.8,22.8,31.48,SSE,153,3.0,8.0,78,0.00,,,0.00,60.00,VWS V14.00,2013-02-02 15:41:00,
2013-02-02 08:46:00,29.1,23.1,31.48,SSE,150,8.0,11.0,78,0.00,,,0.00,51.00,VWS V14.00,2013-02-02 15:46:00,
2013-02-02 08:51:00,29.4,23.1,31.48,SSE,155,4.0,10.0,77,0.00,,,0.00,83.00,VWS V14.00,2013-02-02 15:51:00,
2013-02-02 08:56:00,29.7,23.4,31.47,SSE,152,5.0,10.0,77,0.00,,,0.00,25.00,VWS V14.00,2013-02-02 15:56:00,
2013-02-02 09:01:00,29.9,23.3,31.47,SSE,149,9.0,10.0,76,0.00,,,0.00,67.00,VWS V14.00,2013-02-02 16:01:00,
2013-02-02 09:05:00,30.2,23.6,31.48,SSE,150,5.0,10.0,76,0.00,,,0.00,74.00,VWS V14.00,2013-02-02 16:05:00,
2013-02-02 09:10:00,30.5,23.9,31.47,SSE,156,5.0,10.0,76,0.00,,,0.00,74.00,VWS V14.00,2013-02-02 16:10:00,
2013-02-02 09:15:00,30.8,23.8,31.47,SSE,148,6.0,11.0,75,0.00,,,0.00,79.00,VWS V14.00,2013-02-02 16:15:00,
2013-02-02 09:20:00,31.2,24.2,31.47,SSE,148,7.0,9.0,75,0.00,,,0.00,114.00,VWS V14.00,2013-02-02 16:20:00,
2013-02-02 09:25:00,31.6,24.3,31.47,SSE,148,4.0,9.0,74,0.00,,,0.00,149.00,VWS V14.00,2013-02-02 16:25:00,
2013-02-02 09:30:00,31.9,24.2,31.47,SSE,154,4.0,9.0,73,0.00,,,0.00,132.00,VWS V14.00,2013-02-02 16:30:00,
2013-02-02 09:35:00,32.3,24.6,31.47,South,173,5.0,7.0,73,0.00,,,0.00,171.00,VWS V14.00,2013-02-02 16:35:00,
2013-02-02 09:41:00,32.5,25.1,31.45,South,175,3.0,9.0,74,0.00,,,0.00,181.00,VWS V14.00,2013-02-02 16:41:00,
2013-02-02 09:46:00,33.0,25.6,31.45,SSE,165,2.0,9.0,74,0.00,,,0.00,230.00,VWS V14.00,2013-02-02 16:46:00,
2013-02-02 09:51:00,33.4,25.7,31.45,South,186,3.0,7.0,73,0.00,,,0.00,244.00,VWS V14.00,2013-02-02 16:51:00,
2013-02-02 09:56:00,33.8,26.1,31.45,South,187,5.0,9.0,73,0.00,,,0.00,255.00,VWS V14.00,2013-02-02 16:56:00,
2013-02-02 10:01:00,34.2,26.5,31.45,South,183,5.0,9.0,73,0.00,,,0.00,265.00,VWS V14.00,2013-02-02 17:01:00,
2013-02-02 10:06:00,34.4,26.0,31.45,South,175,3.0,5.0,71,0.00,,,0.00,278.00,VWS V14.00,2013-02-02 17:06:00,
2013-02-02 10:11:00,34.9,26.8,31.44,South,187,5.0,9.0,72,0.00,,,0.00,288.00,VWS V14.00,2013-02-02 17:11:00,
2013-02-02 10:16:00,35.2,26.1,31.44,SSW,197,4.0,10.0,69,0.00,,,0.00,297.00,VWS V14.00,2013-02-02 17:16:00,
2013-02-02 10:21:00,35.4,26.3,31.44,SSW,192,4.0,7.0,69,0.00,,,0.00,306.00,VWS V14.00,2013-02-02 17:21:00,
2013-02-02 10:26:00,35.7,26.5,31.44,South,186,5.0,9.0,69,0.00,,,0.00,315.00,VWS V14.00,2013-02-02 17:26:00,
2013-02-02 10:31:00,36.0,26.5,31.44,South,187,4.0,9.0,68,0.00,,,0.00,325.00,VWS V14.00,2013-02-02 17:31:00,
2013-02-02 10:36:00,36.3,26.8,31.44,South,169,2.0,7.0,68,0.00,,,0.00,334.00,VWS V14.00,2013-02-02 17:36:00,
2013-02-02 10:41:00,36.7,27.1,31.43,South,182,1.0,7.0,68,0.00,,,0.00,341.00,VWS V14.00,2013-02-02 17:41:00,
2013-02-02 10:46:00,37.1,26.8,31.43,SSW,198,2.0,8.0,66,0.00,,,0.00,350.00,VWS V14.00,2013-02-02 17:46:00,
2013-02-02 10:51:00,37.4,27.1,31.43,SSE,165,4.0,9.0,66,0.00,,,0.00,359.00,VWS V14.00,2013-02-02 17:51:00,
2013-02-02 10:56:00,37.6,26.9,31.43,South,179,4.0,10.0,65,0.00,,,0.00,364.00,VWS V14.00,2013-02-02 17:56:00,
2013-02-02 11:01:00,37.8,27.5,31.43,SSE,159,4.0,10.0,66,0.00,,,0.00,373.00,VWS V14.00,2013-02-02 18:01:00,
2013-02-02 11:06:00,38.0,27.3,31.43,South,172,3.0,7.0,65,0.00,,,0.00,380.00,VWS V14.00,2013-02-02 18:06:00,
2013-02-02 11:11:00,38.3,28.0,31.43,SSE,163,6.0,7.0,66,0.00,,,0.00,387.00,VWS V14.00,2013-02-02 18:11:00,
2013-02-02 11:16:00,38.5,27.8,31.44,SSE,165,5.0,9.0,65,0.00,,,0.00,394.00,VWS V14.00,2013-02-02 18:16:00,
2013-02-02 11:21:00,38.8,27.3,31.44,SSE,163,4.0,8.0,63,0.00,,,0.00,399.00,VWS V14.00,2013-02-02 18:21:00,
2013-02-02 11:26:00,39.0,26.7,31.44,South,170,4.0,9.0,61,0.00,,,0.00,404.00,VWS V14.00,2013-02-02 18:26:00,
2013-02-02 11:31:00,39.4,27.9,31.44,South,169,4.0,9.0,63,0.00,,,0.00,410.00,VWS V14.00,2013-02-02 18:31:00,
2013-02-02 11:36:00,39.7,28.1,31.43,South,171,6.0,6.0,63,0.00,,,0.00,415.00,VWS V14.00,2013-02-02 18:36:00,
2013-02-02 11:41:00,40.0,27.6,31.42,SSE,151,7.0,9.0,61,0.00,,,0.00,418.00,VWS V14.00,2013-02-02 18:41:00,
2013-02-02 11:46:00,40.2,28.2,31.42,South,173,3.0,9.0,62,0.00,,,0.00,424.00,VWS V14.00,2013-02-02 18:46:00,
2013-02-02 11:51:00,40.5,27.7,31.42,SSE,157,6.0,6.0,60,0.00,,,0.00,429.00,VWS V14.00,2013-02-02 18:51:00,
2013-02-02 11:56:00,40.7,28.3,31.42,SSE,163,5.0,6.0,61,0.00,,,0.00,432.00,VWS V14.00,2013-02-02 18:56:00,
2013-02-02 12:01:00,40.8,27.6,31.41,SSE,160,1.0,6.0,59,0.00,,,0.00,436.00,VWS V14.00,2013-02-02 19:01:00,
2013-02-02 12:06:00,41.0,27.8,31.41,SSE,157,3.0,5.0,59,0.00,,,0.00,438.00,VWS V14.00,2013-02-02 19:06:00,
2013-02-02 12:11:00,41.2,28.0,31.40,SSE,157,0.0,5.0,59,0.00,,,0.00,439.00,VWS V14.00,2013-02-02 19:11:00,
2013-02-02 12:16:00,41.4,28.6,31.40,SSW,192,0.0,5.0,60,0.00,,,0.00,443.00,VWS V14.00,2013-02-02 19:16:00,
2013-02-02 12:21:00,41.6,27.5,31.40,SSW,192,0.0,3.0,57,0.00,,,0.00,446.00,VWS V14.00,2013-02-02 19:21:00,
2013-02-02 12:26:00,41.9,28.2,31.40,SSW,192,3.0,4.0,58,0.00,,,0.00,446.00,VWS V14.00,2013-02-02 19:26:00,
2013-02-02 12:31:00,42.1,28.8,31.39,SSW,192,2.0,4.0,59,0.00,,,0.00,448.00,VWS V14.00,2013-02-02 19:31:00,
2013-02-02 12:36:00,42.5,29.6,31.39,SSW,192,2.0,4.0,60,0.00,,,0.00,450.00,VWS V14.00,2013-02-02 19:36:00,
2013-02-02 12:41:00,42.8,29.5,31.38,SSW,192,3.0,4.0,59,0.00,,,0.00,450.00,VWS V14.00,2013-02-02 19:41:00,
2013-02-02 12:46:00,43.2,29.4,31.38,SSW,192,0.0,4.0,58,0.00,,,0.00,450.00,VWS V14.00,2013-02-02 19:46:00,
2013-02-02 12:51:00,43.6,29.4,31.37,SSW,192,4.0,4.0,57,0.00,,,0.00,450.00,VWS V14.00,2013-02-02 19:51:00,
2013-02-02 12:56:00,44.0,29.8,31.37,SSW,192,2.0,5.0,57,0.00,,,0.00,450.00,VWS V14.00,2013-02-02 19:56:00,
2013-02-02 13:01:00,44.3,29.2,31.37,SSW,192,2.0,6.0,55,0.00,,,0.00,450.00,VWS V14.00,2013-02-02 20:01:00,
2013-02-02 13:06:00,44.5,28.5,31.36,SSW,192,2.0,5.0,53,0.00,,,0.00,448.00,VWS V14.00,2013-02-02 20:06:00,
2013-02-02 13:11:00,44.7,29.1,31.35,SSW,192,3.0,7.0,54,0.00,,,0.00,446.00,VWS V14.00,2013-02-02 20:11:00,
2013-02-02 13:16:00,45.0,28.5,31.35,South,188,4.0,7.0,52,0.00,,,0.00,445.00,VWS V14.00,2013-02-02 20:16:00,
2013-02-02 13:21:00,45.2,29.1,31.35,SSW,198,2.0,7.0,53,0.00,,,0.00,443.00,VWS V14.00,2013-02-02 20:21:00,
2013-02-02 13:26:00,45.4,29.3,31.35,South,188,8.0,9.0,53,0.00,,,0.00,439.00,VWS V14.00,2013-02-02 20:26:00,
2013-02-02 13:31:00,45.6,29.0,31.35,South,191,3.0,11.0,52,0.00,,,0.00,436.00,VWS V14.00,2013-02-02 20:31:00,
2013-02-02 13:36:00,45.8,28.7,31.34,South,184,5.0,5.0,51,0.00,,,0.00,432.00,VWS V14.00,2013-02-02 20:36:00,
2013-02-02 13:41:00,46.1,28.5,31.34,South,187,4.0,7.0,50,0.00,,,0.00,429.00,VWS V14.00,2013-02-02 20:41:00,
2013-02-02 13:46:00,46.4,28.8,31.34,South,187,4.0,7.0,50,0.00,,,0.00,425.00,VWS V14.00,2013-02-02 20:46:00,
2013-02-02 13:51:00,46.7,29.5,31.33,South,186,2.0,3.0,51,0.00,,,0.00,420.00,VWS V14.00,2013-02-02 20:51:00,
2013-02-02 13:56:00,46.9,28.2,31.33,South,184,3.0,5.0,48,0.00,,,0.00,415.00,VWS V14.00,2013-02-02 20:56:00,
2013-02-02 14:01:00,47.2,28.5,31.32,South,185,0.0,7.0,48,0.00,,,0.00,410.00,VWS V14.00,2013-02-02 21:01:00,
2013-02-02 14:06:00,47.4,28.2,31.32,South,184,1.0,4.0,47,0.00,,,0.00,404.00,VWS V14.00,2013-02-02 21:06:00,
2013-02-02 14:11:00,47.6,28.4,31.32,South,184,1.0,6.0,47,0.00,,,0.00,399.00,VWS V14.00,2013-02-02 21:11:00,
2013-02-02 14:16:00,47.8,29.1,31.32,South,184,4.0,6.0,48,0.00,,,0.00,390.00,VWS V14.00,2013-02-02 21:16:00,
2013-02-02 14:21:00,47.9,28.1,31.32,South,184,2.0,4.0,46,0.00,,,0.00,383.00,VWS V14.00,2013-02-02 21:21:00,
2013-02-02 14:26:00,48.1,27.8,31.31,SSW,192,0.0,5.0,45,0.00,,,0.00,380.00,VWS V14.00,2013-02-02 21:26:00,
2013-02-02 14:31:00,48.2,27.3,31.31,SSW,195,3.0,5.0,44,0.00,,,0.00,373.00,VWS V14.00,2013-02-02 21:31:00,
2013-02-02 14:36:00,48.3,28.5,31.31,SSW,192,2.0,3.0,46,0.00,,,0.00,366.00,VWS V14.00,2013-02-02 21:36:00,
2013-02-02 14:41:00,48.4,28.6,31.31,SSW,192,3.0,3.0,46,0.00,,,0.00,357.00,VWS V14.00,2013-02-02 21:41:00,
2013-02-02 14:46:00,48.5,27.6,31.30,SSW,194,0.0,4.0,44,0.00,,,0.00,350.00,VWS V14.00,2013-02-02 21:46:00,
2013-02-02 14:51:00,48.6,31.8,31.30,North,355,5.0,6.0,52,0.00,,,0.00,339.00,VWS V14.00,2013-02-02 21:51:00,
2013-02-02 14:56:00,47.9,33.0,31.31,North,355,5.0,8.0,56,0.00,,,0.00,332.00,VWS V14.00,2013-02-02 21:56:00,
2013-02-02 15:01:00,46.8,32.4,31.31,North,355,7.0,9.0,57,0.00,,,0.00,323.00,VWS V14.00,2013-02-02 22:01:00,
2013-02-02 15:06:00,46.0,32.1,31.31,North,355,7.0,8.0,58,0.00,,,0.00,313.00,VWS V14.00,2013-02-02 22:06:00,
2013-02-02 15:11:00,45.6,32.5,31.31,North,355,3.0,8.0,60,0.00,,,0.00,304.00,VWS V14.00,2013-02-02 22:11:00,
2013-02-02 15:16:00,45.4,32.8,31.31,North,349,5.0,8.0,61,0.00,,,0.00,295.00,VWS V14.00,2013-02-02 22:16:00,
2013-02-02 15:21:00,45.4,32.8,31.31,North,349,2.0,4.0,61,0.00,,,0.00,285.00,VWS V14.00,2013-02-02 22:21:00,
2013-02-02 15:26:00,45.5,32.4,31.30,North,350,2.0,5.0,60,0.00,,,0.00,276.00,VWS V14.00,2013-02-02 22:26:00,
2013-02-02 15:31:00,45.7,33.4,31.30,North,350,3.0,5.0,62,0.00,,,0.00,265.00,VWS V14.00,2013-02-02 22:31:00,
2013-02-02 15:36:00,45.8,33.1,31.30,NNW,341,6.0,6.0,61,0.00,,,0.00,255.00,VWS V14.00,2013-02-02 22:36:00,
2013-02-02 15:41:00,45.5,32.4,31.30,NNW,340,3.0,6.0,60,0.00,,,0.00,244.00,VWS V14.00,2013-02-02 22:41:00,
2013-02-02 15:46:00,45.3,32.7,31.31,NNW,340,4.0,6.0,61,0.00,,,0.00,156.00,VWS V14.00,2013-02-02 22:46:00,
2013-02-02 15:51:00,45.0,32.4,31.31,NNW,341,2.0,4.0,61,0.00,,,0.00,116.00,VWS V14.00,2013-02-02 22:51:00,
2013-02-02 15:56:00,44.8,32.6,31.31,NNW,341,3.0,4.0,62,0.00,,,0.00,42.00,VWS V14.00,2013-02-02 22:56:00,
2013-02-02 16:01:00,44.5,33.1,31.31,NNW,341,4.0,4.0,64,0.00,,,0.00,134.00,VWS V14.00,2013-02-02 23:01:00,
2013-02-02 16:06:00,44.2,32.4,31.30,NNW,341,3.0,4.0,63,0.00,,,0.00,33.00,VWS V14.00,2013-02-02 23:06:00,
2013-02-02 16:11:00,43.9,32.1,31.30,NNW,341,3.0,4.0,63,0.00,,,0.00,58.00,VWS V14.00,2013-02-02 23:11:00,
2013-02-02 16:16:00,43.7,32.3,31.30,NNW,341,4.0,5.0,64,0.00,,,0.00,28.00,VWS V14.00,2013-02-02 23:16:00,
2013-02-02 16:21:00,43.4,32.8,31.31,NNW,341,4.0,4.0,66,0.00,,,0.00,44.00,VWS V14.00,2013-02-02 23:21:00,
2013-02-02 16:26:00,43.1,32.5,31.31,NNW,341,3.0,5.0,66,0.00,,,0.00,25.00,VWS V14.00,2013-02-02 23:26:00,
2013-02-02 16:31:00,42.8,32.2,31.31,NNW,342,4.0,5.0,66,0.00,,,0.00,25.00,VWS V14.00,2013-02-02 23:31:00,
2013-02-02 16:36:00,42.6,32.0,31.31,NNW,342,3.0,5.0,66,0.00,,,0.00,26.00,VWS V14.00,2013-02-02 23:36:00,
2013-02-02 16:41:00,42.4,32.2,31.31,NNW,342,4.0,5.0,67,0.00,,,0.00,25.00,VWS V14.00,2013-02-02 23:41:00,
2013-02-02 16:46:00,42.1,31.6,31.31,NNW,342,5.0,5.0,66,0.00,,,0.00,30.00,VWS V14.00,2013-02-02 23:46:00,
2013-02-02 16:51:00,41.9,30.6,31.31,NNW,342,4.0,5.0,64,0.00,,,0.00,26.00,VWS V14.00,2013-02-02 23:51:00,
2013-02-02 16:56:00,41.6,30.7,31.31,NNW,342,5.0,5.0,65,0.00,,,0.00,19.00,VWS V14.00,2013-02-02 23:56:00,
2013-02-02 17:01:00,41.1,29.9,31.32,NNW,343,5.0,6.0,64,0.00,,,0.00,16.00,VWS V14.00,2013-02-03 00:01:00,
2013-02-02 17:06:00,40.9,29.7,31.31,NNW,346,3.0,6.0,64,0.00,,,0.00,12.00,VWS V14.00,2013-02-03 00:06:00,
2013-02-02 17:11:00,40.7,29.5,31.32,North,355,3.0,6.0,64,0.00,,,0.00,12.00,VWS V14.00,2013-02-03 00:11:00,
2013-02-02 17:16:00,40.5,29.3,31.32,North,355,2.0,6.0,64,0.00,,,0.00,11.00,VWS V14.00,2013-02-03 00:16:00,
2013-02-02 17:21:00,40.3,29.1,31.33,North,355,0.0,2.0,64,0.00,,,0.00,9.00,VWS V14.00,2013-02-03 00:21:00,
2013-02-02 17:26:00,40.2,29.0,31.32,North,355,0.0,3.0,64,0.00,,,0.00,7.00,VWS V14.00,2013-02-03 00:26:00,
2013-02-02 17:31:00,40.1,28.9,31.32,North,355,0.0,3.0,64,0.00,,,0.00,5.00,VWS V14.00,2013-02-03 00:31:00,
2013-02-02 17:36:00,40.0,28.8,31.32,North,355,0.0,1.0,64,0.00,,,0.00,5.00,VWS V14.00,2013-02-03 00:36:00,
2013-02-02 17:41:00,40.0,28.8,31.32,North,355,0.0,2.0,64,0.00,,,0.00,0.00,VWS V14.00,2013-02-03 00:41:00,
2013-02-02 17:46:00,39.8,29.0,31.32,North,355,0.0,2.0,65,0.00,,,0.00,0.00,VWS V14.00,2013-02-03 00:46:00,
2013-02-02 17:51:00,39.7,28.9,31.32,North,355,0.0,0.0,65,0.00,,,0.00,0.00,VWS V14.00,2013-02-03 00:51:00,
2013-02-02 17:56:00,39.6,28.8,31.32,North,355,0.0,0.0,65,0.00,,,0.00,0.00,VWS V14.00,2013-02-03 00:56:00,
2013-02-02 18:01:00,39.2,29.2,31.32,North,355,0.0,0.0,67,0.00,,,0.00,0.00,VWS V14.00,2013-02-03 01:01:00,
2013-02-02 18:06:00,38.7,29.1,31.32,North,355,0.0,0.0,68,0.00,,,0.00,0.00,VWS V14.00,2013-02-03 01:06:00,
2013-02-02 18:11:00,38.3,29.0,31.33,North,355,0.0,0.0,69,0.00,,,0.00,0.00,VWS V14.00,2013-02-03 01:11:00,
2013-02-02 18:16:00,37.9,28.6,31.33,North,355,0.0,0.0,69,0.00,,,0.00,0.00,VWS V14.00,2013-02-03 01:16:00,
2013-02-02 18:21:00,37.6,28.4,31.33,North,355,0.0,0.0,69,0.00,,,0.00,0.00,VWS V14.00,2013-02-03 01:21:00,
2013-02-02 18:26:00,37.1,28.2,31.33,North,355,0.0,0.0,70,0.00,,,0.00,0.00,VWS V14.00,2013-02-03 01:26:00,
2013-02-02 18:31:00,36.4,28.2,31.33,North,355,0.0,0.0,72,0.00,,,0.00,0.00,VWS V14.00,2013-02-03 01:31:00,
2013-02-02 18:36:00,35.7,27.9,31.34,North,355,0.0,0.0,73,0.00,,,0.00,0.00,VWS V14.00,2013-02-03 01:36:00,
2013-02-02 18:41:00,35.4,28.0,31.34,North,355,0.0,0.0,74,0.00,,,0.00,0.00,VWS V14.00,2013-02-03 01:41:00,
2013-02-02 18:46:00,35.1,28.0,31.34,North,355,0.0,0.0,75,0.00,,,0.00,0.00,VWS V14.00,2013-02-03 01:46:00,
2013-02-02 18:51:00,34.9,27.8,31.34,North,355,0.0,0.0,75,0.00,,,0.00,0.00,VWS V14.00,2013-02-03 01:51:00,
2013-02-02 18:56:00,34.8,27.7,31.34,North,355,0.0,0.0,75,0.00,,,0.00,0.00,VWS V14.00,2013-02-03 01:56:00,
2013-02-02 19:01:00,34.6,27.5,31.34,North,355,0.0,0.0,75,0.00,,,0.00,0.00,VWS V14.00,2013-02-03 02:01:00,
2013-02-02 19:06:00,34.4,27.3,31.35,North,355,0.0,0.0,75,0.00,,,0.00,0.00,VWS V14.00,2013-02-03 02:06:00,
2013-02-02 19:11:00,34.4,27.0,31.35,North,355,0.0,0.0,74,0.00,,,0.00,0.00,VWS V14.00,2013-02-03 02:11:00,
2013-02-02 19:16:00,34.3,27.2,31.35,North,355,0.0,2.0,75,0.00,,,0.00,0.00,VWS V14.00,2013-02-03 02:16:00,
2013-02-02 19:21:00,33.6,26.9,31.35,North,355,0.0,2.0,76,0.00,,,0.00,0.00,VWS V14.00,2013-02-03 02:21:00,
2013-02-02 19:26:00,33.2,26.8,31.35,North,355,0.0,2.0,77,0.00,,,0.00,0.00,VWS V14.00,2013-02-03 02:26:00,
2013-02-02 19:31:00,33.0,26.9,31.36,North,355,0.0,2.0,78,0.00,,,0.00,0.00,VWS V14.00,2013-02-03 02:31:00,
2013-02-02 19:36:00,32.9,27.1,31.35,North,355,0.0,0.0,79,0.00,,,0.00,0.00,VWS V14.00,2013-02-03 02:36:00,
2013-02-02 19:41:00,32.7,26.9,31.35,North,355,0.0,0.0,79,0.00,,,0.00,0.00,VWS V14.00,2013-02-03 02:41:00,
2013-02-02 19:46:00,32.6,26.8,31.35,North,355,0.0,0.0,79,0.00,,,0.00,0.00,VWS V14.00,2013-02-03 02:46:00,
2013-02-02 19:51:00,32.6,26.8,31.35,North,355,0.0,0.0,79,0.00,,,0.00,0.00,VWS V14.00,2013-02-03 02:51:00,
2013-02-02 19:56:00,32.6,26.8,31.35,North,355,0.0,0.0,79,0.00,,,0.00,0.00,VWS V14.00,2013-02-03 02:56:00,
2013-02-02 20:01:00,32.6,26.8,31.35,North,355,0.0,0.0,79,0.00,,,0.00,0.00,VWS V14.00,2013-02-03 03:01:00,
2013-02-02 20:06:00,32.7,26.9,31.35,North,355,0.0,0.0,79,0.00,,,0.00,0.00,VWS V14.00,2013-02-03 03:06:00,
2013-02-02 20:11:00,32.6,26.8,31.34,North,355,0.0,0.0,79,0.00,,,0.00,0.00,VWS V14.00,2013-02-03 03:11:00,
2013-02-02 20:16:00,32.5,26.4,31.34,North,355,0.0,0.0,78,0.00,,,0.00,0.00,VWS V14.00,2013-02-03 03:16:00,
2013-02-02 20:21:00,32.5,26.4,31.34,North,355,0.0,3.0,78,0.00,,,0.00,0.00,VWS V14.00,2013-02-03 03:21:00,
2013-02-02 20:26:00,32.3,25.9,31.34,North,355,0.0,3.0,77,0.00,,,0.00,0.00,VWS V14.00,2013-02-03 03:26:00,
2013-02-02 20:31:00,31.9,25.5,31.33,North,355,0.0,3.0,77,0.00,,,0.00,0.00,VWS V14.00,2013-02-03 03:31:00,
2013-02-02 20:36:00,31.6,25.2,31.33,North,355,0.0,0.0,77,0.00,,,0.00,0.00,VWS V14.00,2013-02-03 03:36:00,
2013-02-02 20:41:00,31.2,25.1,31.34,North,355,0.0,0.0,78,0.00,,,0.00,0.00,VWS V14.00,2013-02-03 03:41:00,
2013-02-02 20:46:00,30.7,25.0,31.33,North,355,0.0,0.0,79,0.00,,,0.00,0.00,VWS V14.00,2013-02-03 03:46:00,
2013-02-02 20:51:00,30.3,24.9,31.33,North,355,0.0,0.0,80,0.00,,,0.00,0.00,VWS V14.00,2013-02-03 03:51:00,
2013-02-02 20:56:00,30.1,25.0,31.33,North,355,1.0,1.0,81,0.00,,,0.00,0.00,VWS V14.00,2013-02-03 03:56:00,
2013-02-02 21:01:00,30.3,25.2,31.33,North,355,0.0,2.0,81,0.00,,,0.00,0.00,VWS V14.00,2013-02-03 04:01:00,
2013-02-02 21:06:00,30.8,25.4,31.31,North,355,0.0,1.0,80,0.00,,,0.00,0.00,VWS V14.00,2013-02-03 04:06:00,
2013-02-02 21:11:00,31.2,25.5,31.31,North,355,0.0,2.0,79,0.00,,,0.00,0.00,VWS V14.00,2013-02-03 04:11:00,
2013-02-02 21:16:00,31.3,25.6,31.31,North,355,0.0,2.0,79,0.00,,,0.00,0.00,VWS V14.00,2013-02-03 04:16:00,
2013-02-02 21:21:00,31.3,25.2,31.31,North,355,0.0,2.0,78,0.00,,,0.00,0.00,VWS V14.00,2013-02-03 04:21:00,
2013-02-02 21:26:00,31.3,25.2,31.30,North,355,0.0,2.0,78,0.00,,,0.00,0.00,VWS V14.00,2013-02-03 04:26:00,
2013-02-02 21:31:00,31.2,25.1,31.30,North,355,1.0,2.0,78,0.00,,,0.00,0.00,VWS V14.00,2013-02-03 04:31:00,
2013-02-02 21:36:00,31.2,25.1,31.30,North,355,0.0,0.0,78,0.00,,,0.00,0.00,VWS V14.00,2013-02-03 04:36:00,
2013-02-02 21:41:00,31.1,25.0,31.30,North,355,0.0,0.0,78,0.00,,,0.00,0.00,VWS V14.00,2013-02-03 04:41:00,
2013-02-02 21:46:00,31.1,25.0,31.30,North,355,0.0,0.0,78,0.00,,,0.00,0.00,VWS V14.00,2013-02-03 04:46:00,
2013-02-02 21:51:00,31.0,25.0,31.30,North,355,0.0,0.0,78,0.00,,,0.00,0.00,VWS V14.00,2013-02-03 04:51:00,
2013-02-02 21:56:00,31.0,25.0,31.30,North,355,0.0,0.0,78,0.00,,,0.00,0.00,VWS V14.00,2013-02-03 04:56:00,
2013-02-02 22:00:00,31.0,25.0,31.30,North,355,0.0,0.0,78,0.00,,,0.00,0.00,VWS V14.00,2013-02-03 05:00:00,
2013-02-02 22:01:00,31.0,25.0,31.30,North,355,0.0,1.0,78,0.00,,,0.00,0.00,VWS V14.00,2013-02-03 05:01:00,
2013-02-02 22:06:00,30.9,25.2,31.27,North,355,1.0,2.0,79,0.00,,,0.00,0.00,VWS V14.00,2013-02-03 05:06:00,
2013-02-02 22:11:00,30.7,25.0,31.27,North,355,0.0,2.0,79,0.00,,,0.00,0.00,VWS V14.00,2013-02-03 05:11:00,
2013-02-02 22:16:00,30.7,25.0,31.27,North,355,0.0,2.0,79,0.00,,,0.00,0.00,VWS V14.00,2013-02-03 05:16:00,
2013-02-02 22:21:00,30.7,25.0,31.26,North,355,0.0,0.0,79,0.00,,,0.00,0.00,VWS V14.00,2013-02-03 05:21:00,
2013-02-02 22:26:00,30.8,25.1,31.26,North,355,0.0,0.0,79,0.00,,,0.00,0.00,VWS V14.00,2013-02-03 05:26:00,
2013-02-02 22:31:00,30.9,24.9,31.26,North,355,0.0,0.0,78,0.00,,,0.00,0.00,VWS V14.00,2013-02-03 05:31:00,
2013-02-02 22:36:00,30.9,24.9,31.26,North,355,0.0,0.0,78,0.00,,,0.00,0.00,VWS V14.00,2013-02-03 05:36:00,
2013-02-02 22:41:00,30.8,24.8,31.26,North,355,0.0,0.0,78,0.00,,,0.00,0.00,VWS V14.00,2013-02-03 05:41:00,
2013-02-02 22:46:00,30.7,24.7,31.26,North,355,0.0,0.0,78,0.00,,,0.00,0.00,VWS V14.00,2013-02-03 05:46:00,
2013-02-02 22:51:00,30.5,24.8,31.25,North,355,0.0,0.0,79,0.00,,,0.00,0.00,VWS V14.00,2013-02-03 05:51:00,
2013-02-02 22:56:00,30.3,24.6,31.25,North,355,0.0,0.0,79,0.00,,,0.00,0.00,VWS V14.00,2013-02-03 05:56:00,
2013-02-02 23:01:00,30.1,24.7,31.25,North,355,0.0,0.0,80,0.00,,,0.00,0.00,VWS V14.00,2013-02-03 06:01:00,
2013-02-02 23:06:00,30.1,24.7,31.24,North,355,0.0,1.0,80,0.00,,,0.00,0.00,VWS V14.00,2013-02-03 06:06:00,
2013-02-02 23:11:00,29.8,24.4,31.24,North,355,0.0,1.0,80,0.00,,,0.00,0.00,VWS V14.00,2013-02-03 06:11:00,
2013-02-02 23:16:00,29.5,24.4,31.24,North,355,0.0,1.0,81,0.00,,,0.00,0.00,VWS V14.00,2013-02-03 06:16:00,
2013-02-02 23:21:00,29.3,24.5,31.24,North,355,0.0,0.0,82,0.00,,,0.00,0.00,VWS V14.00,2013-02-03 06:21:00,
2013-02-02 23:26:00,29.3,24.5,31.24,North,355,0.0,0.0,82,0.00,,,0.00,0.00,VWS V14.00,2013-02-03 06:26:00,
2013-02-02 23:31:00,29.4,24.6,31.24,North,355,0.0,0.0,82,0.00,,,0.00,0.00,VWS V14.00,2013-02-03 06:31:00,
2013-02-02 23:36:00,29.4,24.6,31.23,North,355,0.0,1.0,82,0.00,,,0.00,0.00,VWS V14.00,2013-02-03 06:36:00,
2013-02-02 23:41:00,29.5,24.7,31.23,North,355,0.0,1.0,82,0.00,,,0.00,0.00,VWS V14.00,2013-02-03 06:41:00,
2013-02-02 23:46:00,29.6,24.5,31.23,North,355,1.0,2.0,81,0.00,,,0.00,0.00,VWS V14.00,2013-02-03 06:46:00,
2013-02-02 23:51:00,29.9,24.5,31.23,North,355,0.0,1.0,80,0.00,,,0.00,0.00,VWS V14.00,2013-02-03 06:51:00,
2013-02-02 23:56:00,30.1,24.7,31.22,North,355,0.0,1.0,80,0.00,,,0.00,0.00,VWS V14.00,2013-02-03 06:56:00,